TimeEDT,TemperatureF,Dew PointF,Humidity,Sea Level PressureIn,VisibilityMPH,Wind Direction,Wind SpeedMPH,Gust SpeedMPH,PrecipitationIn,Events,Conditions,WindDirDegrees,DateUTC
12:53 AM,69.1,66.0,90,29.90,5.0,Calm,Calm,-,N/A,,Overcast,0,2013-09-21 04:53:00
1:53 AM,69.1,66.0,90,29.89,5.0,Calm,Calm,-,N/A,,Overcast,0,2013-09-21 05:53:00
2:53 AM,69.1,66.0,90,29.87,4.0,Calm,Calm,-,N/A,,Overcast,0,2013-09-21 06:53:00
3:53 AM,69.1,66.0,90,29.85,5.0,Calm,Calm,-,N/A,,Overcast,0,2013-09-21 07:53:00
4:53 AM,69.1,66.0,90,29.83,5.0,Calm,Calm,-,N/A,,Overcast,0,2013-09-21 08:53:00
5:53 AM,69.1,66.0,90,29.82,5.0,Calm,Calm,-,N/A,,Overcast,0,2013-09-21 09:53:00
6:12 AM,68.0,66.2,94,29.88,4.0,Calm,Calm,-,N/A,,Overcast,0,2013-09-21 10:12:00
6:34 AM,68.0,66.2,94,29.88,3.0,Calm,Calm,-,N/A,,Overcast,0,2013-09-21 10:34:00
6:43 AM,68.0,66.2,94,29.88,4.0,Calm,Calm,-,N/A,,Overcast,0,2013-09-21 10:43:00
6:53 AM,68.0,64.9,90,29.82,4.0,South,4.6,-,N/A,,Overcast,190,2013-09-21 10:53:00
7:45 AM,66.2,64.4,94,29.88,3.0,South,3.5,-,N/A,,Scattered Clouds,190,2013-09-21 11:45:00
7:53 AM,66.9,64.0,90,29.82,4.0,South,3.5,-,N/A,,Scattered Clouds,190,2013-09-21 11:53:00
8:16 AM,66.2,64.4,94,29.89,4.0,SSW,5.8,-,N/A,,Mostly Cloudy,210,2013-09-21 12:16:00
8:50 AM,68.0,64.4,88,29.89,5.0,South,8.1,-,N/A,,Mostly Cloudy,190,2013-09-21 12:50:00
8:53 AM,68.0,64.0,87,29.83,5.0,South,6.9,-,N/A,,Mostly Cloudy,190,2013-09-21 12:53:00
9:39 AM,69.8,64.4,83,29.88,8.0,SSW,6.9,-,N/A,,Mostly Cloudy,200,2013-09-21 13:39:00
9:53 AM,69.1,64.0,84,29.82,8.0,SSW,6.9,-,N/A,,Mostly Cloudy,200,2013-09-21 13:53:00
10:53 AM,69.1,64.9,87,29.82,7.0,South,9.2,-,0.00,Rain,Light Rain,190,2013-09-21 14:53:00
11:53 AM,69.1,66.0,90,29.80,5.0,South,6.9,-,0.01,Rain,Light Rain,190,2013-09-21 15:53:00
12:43 PM,69.8,66.2,88,29.84,5.0,South,6.9,-,0.01,Rain,Light Rain,190,2013-09-21 16:43:00
12:53 PM,70.0,66.0,87,29.78,5.0,South,8.1,-,0.01,Rain,Light Rain,190,2013-09-21 16:53:00
1:02 PM,69.8,66.2,88,29.84,5.0,South,5.8,-,0.00,Rain,Light Rain,190,2013-09-21 17:02:00
1:13 PM,69.8,66.2,88,29.83,5.0,South,8.1,-,0.00,Rain,Light Rain,190,2013-09-21 17:13:00
1:32 PM,69.8,66.2,88,29.83,5.0,South,8.1,-,0.01,Rain,Light Rain,190,2013-09-21 17:32:00
1:53 PM,70.0,66.0,87,29.75,5.0,South,9.2,-,0.02,Rain,Light Rain,190,2013-09-21 17:53:00
2:01 PM,69.8,66.2,88,29.81,5.0,South,6.9,-,0.00,Rain,Light Rain,190,2013-09-21 18:01:00
2:16 PM,69.8,66.2,88,29.80,7.0,Variable,4.6,-,0.00,Rain,Light Rain,0,2013-09-21 18:16:00
2:40 PM,69.8,66.2,88,29.78,6.0,South,9.2,-,0.01,Rain,Light Rain,190,2013-09-21 18:40:00
2:50 PM,69.8,66.2,88,29.78,6.0,South,10.4,-,0.01,Rain,Light Rain,190,2013-09-21 18:50:00
2:53 PM,70.0,66.9,90,29.72,7.0,South,9.2,-,0.01,Rain,Light Rain,180,2013-09-21 18:53:00
3:16 PM,69.8,66.2,88,29.77,9.0,South,6.9,-,0.00,Rain,Light Rain,180,2013-09-21 19:16:00
3:53 PM,70.0,66.9,90,29.69,9.0,South,8.1,-,0.01,Rain,Light Rain,190,2013-09-21 19:53:00
4:02 PM,69.8,66.2,88,29.75,9.0,South,9.2,-,0.00,Rain,Light Rain,180,2013-09-21 20:02:00
4:12 PM,69.8,66.2,88,29.75,3.0,South,10.4,17.3,0.03,Rain,Heavy Rain,190,2013-09-21 20:12:00
4:15 PM,69.8,66.2,88,29.75,1.8,SSW,5.8,17.3,0.06,Rain,Heavy Rain,200,2013-09-21 20:15:00
4:24 PM,69.8,66.2,88,29.75,1.2,SW,9.2,-,0.16,Rain,Heavy Rain,220,2013-09-21 20:24:00
4:29 PM,69.8,66.2,88,29.75,2.0,SW,10.4,-,0.16,Rain,Light Rain,230,2013-09-21 20:29:00
4:31 PM,69.8,66.2,88,29.75,3.0,SW,9.2,-,0.16,Rain,Light Rain,220,2013-09-21 20:31:00
4:45 PM,69.8,68.0,94,29.75,2.5,SW,5.8,-,0.19,Rain,Rain,220,2013-09-21 20:45:00
4:53 PM,70.0,68.0,93,29.69,1.8,West,9.2,-,0.23,Rain,Heavy Rain,260,2013-09-21 20:53:00
5:06 PM,69.8,66.2,88,29.76,0.8,WNW,11.5,25.3,0.14,Rain,Heavy Rain,300,2013-09-21 21:06:00
5:21 PM,66.2,64.4,94,29.76,1.0,WNW,9.2,19.6,0.31,Rain,Heavy Rain,290,2013-09-21 21:21:00
5:43 PM,66.2,64.4,94,29.77,0.8,West,6.9,-,0.46,Rain,Heavy Rain,260,2013-09-21 21:43:00
5:50 PM,66.2,64.4,94,29.77,1.0,WSW,5.8,-,0.53,Rain,Heavy Rain,240,2013-09-21 21:50:00
5:53 PM,66.0,64.9,96,29.71,0.8,WSW,4.6,-,0.56,Rain,Heavy Rain,250,2013-09-21 21:53:00
6:01 PM,66.2,64.4,94,29.76,1.0,SSW,4.6,-,0.04,Rain,Heavy Rain,210,2013-09-21 22:01:00
6:10 PM,66.2,64.4,94,29.76,3.0,SSW,5.8,-,0.06,Rain,Light Rain,200,2013-09-21 22:10:00
6:53 PM,66.0,64.0,93,29.72,3.0,NNW,3.5,-,0.09,Rain,Rain,330,2013-09-21 22:53:00
7:15 PM,66.2,64.4,94,29.77,2.5,Calm,Calm,-,0.04,Rain,Rain,0,2013-09-21 23:15:00
7:20 PM,66.2,64.4,94,29.77,3.0,NNW,3.5,-,0.04,Rain,Rain,340,2013-09-21 23:20:00
7:29 PM,64.4,64.4,100,29.77,4.0,North,4.6,-,0.05,Rain,Light Rain,360,2013-09-21 23:29:00
7:40 PM,64.4,64.4,100,29.76,8.0,NNE,3.5,-,0.06,Rain,Light Rain,30,2013-09-21 23:40:00
7:49 PM,64.4,64.4,100,29.76,6.0,North,3.5,-,0.07,Rain,Rain,350,2013-09-21 23:49:00
7:53 PM,64.9,64.0,97,29.71,5.0,NNE,3.5,-,0.08,Rain,Rain,20,2013-09-21 23:53:00
8:53 PM,64.9,64.0,97,29.72,10.0,NNE,3.5,-,0.01,Rain,Light Rain,30,2013-09-22 00:53:00
9:53 PM,64.9,63.0,93,29.71,10.0,NE,6.9,-,0.04,Rain,Light Rain,50,2013-09-22 01:53:00
10:53 PM,64.0,62.1,93,29.72,10.0,NE,5.8,-,0.00,,Overcast,40,2013-09-22 02:53:00
11:02 PM,64.4,62.6,94,29.77,10.0,NE,5.8,-,N/A,,Overcast,40,2013-09-22 03:02:00
11:13 PM,64.4,62.6,94,29.77,10.0,NNE,6.9,-,N/A,,Overcast,30,2013-09-22 03:13:00
11:53 PM,64.0,62.1,93,29.72,10.0,North,4.6,-,N/A,,Overcast,350,2013-09-22 03:53:00